Location: Palomar Mountain Lodge
(33.3110°N, 116.8495°W)
Time: 05:52:59
(UTC-08:00)

IGS 5A - Pass Details

Date: 12 July 2018
Orbit: 585 x 588 km, 97.7° (Epoch: 03 October)

Event Time Altitude Azimuth Distance (km) Brightness Sun altitude
Exits shadow 22:48:45 49° 346° (NNW) 758 4.3 -27.4°
Drops below altitude 10° 22:51:50 10° 348° (NNW) 1,911 6.9 -27.7°
Sets 22:54:00 0° 348° (NNW) 2,816 8.0 -28.0°
